Location: ??????
(55.2000°N, 38.3000°E)
Time: 01:14:55
(UTC+00:00)

NOSS 2-1 (E) - Pass Details

Date: 15 November 2025
Orbit: 385 x 1749 km, 63.3° (Epoch: 07 May)

Event Time Altitude Azimuth Distance (km) Brightness Sun altitude
Exits shadow 03:16:18 23° 327° (NNW) 895 4.0 -14.4°
Maximum altitude 03:16:46 24° 343° (NNW) 867 4.1 -14.4°
Drops below altitude 10° 03:19:20 10° 40° (NE) 1,438 5.8 -14.0°
Sets 03:21:41 0° 55° (NE) 2,356 7.2 -13.7°
